GFSCGP_925_thetae_336.txt.gz
Theta_e
294 301 300 298 295 296 300 301 300 297 293 294 297 297 297 296 296 297 296 294 294 293 291 289 288 287 286 285 285 285 285 284 285 286 286 285 284 284 283 283 282 282 282 282
297 295 290 291 292 295 297 298 298 294 292 293 295 295 297 296 296 297 297 295 294 293 291 289 288 287 286 286 285 285 284 284 284 285 284 285 284 283 283 282 282 282 282 282
296 291 289 291 292 295 294 296 295 295 293 292 293 298 296 294 295 295 296 296 295 294 292 290 288 288 287 286 285 285 284 284 284 284 284 284 284 284 284 283 282 282 282 282
291 289 291 292 292 292 294 290 291 293 295 297 293 298 299 295 294 294 295 296 295 294 292 291 289 288 287 287 286 285 284 284 283 283 284 285 285 285 283 282 282 282 281 281
290 290 291 292 290 290 292 290 292 292 294 293 294 296 301 293 298 297 295 295 295 294 293 292 290 289 288 287 286 285 285 284 283 283 284 284 284 283 282 282 282 282 282 281
288 287 288 289 288 289 291 293 293 292 294 300 293 295 300 299 300 297 294 295 295 294 293 291 290 289 288 287 286 286 285 284 283 283 283 284 284 284 284 283 283 282 282 281
289 288 287 288 291 290 292 294 300 302 303 302 291 293 300 300 298 295 295 294 295 294 293 292 290 289 288 287 287 286 285 285 284 283 283 283 283 283 283 283 283 283 282 282
296 296 288 287 289 293 292 295 301 300 299 297 291 297 302 296 293 293 292 292 293 293 293 292 290 289 288 287 287 286 286 286 284 284 284 284 283 283 283 283 282 282 281 281
295 291 286 287 287 288 292 295 292 295 287 295 297 299 300 295 295 294 293 292 292 292 292 292 290 289 289 288 287 287 287 286 286 285 284 284 284 284 283 283 283 282 282 281
291 295 287 286 286 287 290 290 295 294 298 299 297 296 298 298 297 296 295 294 292 291 291 292 291 289 288 288 288 287 287 287 286 286 285 285 285 284 284 283 283 283 282 282
290 295 288 286 288 290 289 291 290 292 295 299 297 299 301 296 295 295 294 294 292 292 291 291 290 290 288 288 287 287 287 286 286 286 285 285 285 285 284 284 284 283 282 282
289 295 293 291 285 284 287 291 293 297 295 291 293 297 295 294 294 293 293 293 292 291 291 290 290 289 288 287 287 287 286 286 286 286 285 285 285 285 284 284 284 283 282 282
290 294 297 294 289 285 287 287 289 288 290 293 298 297 290 291 293 292 292 292 292 290 289 288 288 288 288 287 287 286 286 286 286 286 285 285 284 284 284 284 284 283 282 282
289 288 296 301 298 291 288 286 287 291 295 294 293 295 295 295 294 294 291 291 291 291 289 288 288 287 287 286 286 286 286 286 286 286 285 285 284 284 284 284 284 283 283 282
288 292 282 286 286 285 289 286 287 288 293 295 296 294 296 295 293 291 290 290 290 291 290 288 288 287 287 286 286 286 285 285 285 285 284 284 284 284 284 284 284 284 283 283
280 290 280 286 284 285 286 285 286 288 290 290 291 291 293 294 292 290 291 290 289 289 290 289 288 287 287 286 286 286 286 285 285 284 284 284 284 284 284 284 284 283 283 282
285 284 287 294 284 285 291 285 287 287 288 291 292 293 293 291 289 290 290 289 289 289 288 289 288 288 287 287 286 285 285 285 284 284 283 283 284 284 283 283 283 283 282 282
281 284 285 292 284 293 293 285 287 289 289 288 290 290 289 288 288 287 287 287 287 288 287 287 287 287 286 285 285 285 284 284 284 283 283 283 283 283 282 282 282 282 282 281
281 285 285 292 292 292 292 285 286 287 294 289 289 289 289 286 285 289 285 284 286 286 286 287 286 285 284 284 284 283 283 282 282 282 282 282 281 282 282 282 282 282 281 281
281 281 289 282 292 294 291 285 282 284 292 286 287 288 288 286 292 291 284 283 285 284 284 284 283 282 282 281 281 282 281 280 280 279 279 279 280 280 280 280 280 280 280 280
285 285 287 287 291 290 288 283 282 292 293 284 285 286 285 289 289 284 283 282 282 281 281 281 279 278 277 277 278 278 277 276 275 276 277 278 278 278 278 278 278 278 279 279
286 287 285 284 287 289 283 282 288 289 284 285 284 284 284 284 284 283 281 279 278 277 276 276 276 274 272 273 274 274 272 272 273 274 275 276 276 276 275 275 276 277 277 277
289 289 288 289 290 286 283 285 283 283 285 283 283 282 281 283 281 281 278 275 273 272 272 272 272 271 270 270 270 270 269 269 271 272 273 273 273 273 274 274 274 274 274 274
283 281 287 286 288 285 284 283 281 280 280 278 277 277 278 279 277 277 276 273 272 271 270 269 270 269 268 267 267 267 266 267 268 268 269 270 270 271 271 272 272 272 273 273
284 283 285 285 285 283 280 279 278 276 276 275 273 273 273 274 273 273 272 270 270 269 268 267 267 267 267 265 265 265 264 264 265 265 266 267 268 269 269 270 270 271 271 271
282 286 287 290 286 286 279 274 274 274 273 273 273 271 269 270 269 269 269 267 267 266 266 265 264 264 264 263 263 263 263 262 262 263 265 265 266 267 268 269 269 270 271 272

GFSCGP_925_thetae_339.txt.gz
Theta_e
300 304 304 302 299 300 302 302 302 302 296 297 300 301 301 302 299 300 301 300 299 297 295 292 291 289 288 288 287 287 287 287 288 288 289 288 287 286 286 285 285 285 285 285
300 301 295 295 296 299 300 301 302 299 295 295 299 298 300 301 300 300 300 301 299 298 296 292 291 290 289 288 288 287 287 287 287 287 287 287 287 286 285 285 285 284 284 284
301 294 292 294 296 298 298 299 299 297 296 296 296 301 302 300 299 300 299 300 300 298 296 293 291 290 289 288 288 287 286 286 286 286 286 286 286 286 286 286 285 284 284 284
294 291 293 295 295 295 298 293 294 295 298 300 297 299 302 302 300 298 298 298 299 299 297 294 292 291 290 289 288 287 287 286 286 286 287 288 288 287 285 285 285 284 284 284
293 292 293 295 292 292 295 293 295 295 297 297 298 298 302 300 301 301 300 298 298 299 298 296 293 291 290 289 288 288 287 286 285 286 287 287 287 286 285 285 285 285 284 283
290 289 291 292 290 292 293 295 295 296 297 303 298 297 301 302 301 300 299 298 298 298 298 296 294 292 291 289 289 288 287 286 286 286 286 286 287 286 286 286 286 285 284 284
291 290 289 290 293 293 294 297 304 306 307 307 295 296 301 302 299 298 298 297 297 297 297 296 295 292 291 290 289 288 287 287 286 286 286 286 286 286 286 286 285 285 285 284
299 298 291 289 292 296 295 298 306 304 302 301 294 298 304 299 297 297 296 296 295 296 296 296 295 293 291 290 289 288 288 287 286 286 286 286 285 285 285 285 285 284 284 283
300 294 288 288 289 292 295 296 295 301 292 297 299 301 302 298 298 298 296 295 296 295 296 296 295 293 291 290 290 289 288 288 287 286 286 286 285 285 285 285 284 284 283 282
296 296 289 288 289 290 292 293 296 298 303 303 300 300 300 300 299 298 297 297 296 295 294 295 294 293 292 291 290 289 289 288 288 287 287 286 286 285 285 285 285 284 284 283
297 301 290 288 290 293 290 294 294 296 298 302 300 301 307 300 298 298 296 296 296 295 294 294 294 293 292 291 290 290 289 289 288 288 287 287 286 286 285 285 284 284 284 283
295 304 295 295 288 287 290 295 296 299 300 295 297 299 298 298 297 296 295 294 295 294 294 294 293 294 292 291 290 290 289 289 288 288 287 287 286 286 285 285 285 284 284 283
294 301 301 296 291 288 289 290 293 293 294 299 300 299 294 294 295 295 294 293 294 293 293 293 293 293 292 291 290 289 289 288 288 288 287 287 286 286 285 285 285 284 284 283
292 297 302 306 302 295 292 291 291 295 297 296 297 297 297 297 297 297 295 294 293 293 293 292 292 292 292 291 290 289 288 288 287 287 287 286 286 286 285 285 284 284 284 283
291 295 289 291 291 291 294 291 291 292 295 298 297 298 299 299 296 294 294 292 292 292 292 292 291 291 291 290 289 288 288 287 287 286 286 286 286 285 284 284 284 284 283 283
284 295 285 291 289 288 289 290 290 291 292 293 295 295 296 296 294 293 293 292 291 291 291 291 291 289 289 289 288 288 287 287 286 286 286 285 285 284 284 284 284 283 283 283
288 289 291 296 288 289 293 288 290 290 292 293 294 296 296 295 292 291 291 291 290 290 289 289 290 289 289 288 288 288 287 286 285 285 285 285 284 284 284 284 283 283 283 282
289 291 293 296 289 295 296 289 290 291 293 292 294 294 293 292 291 289 288 288 289 289 289 289 289 289 288 288 287 287 286 285 284 284 284 284 283 283 283 282 282 282 282 282
285 291 292 296 296 296 294 288 289 290 295 292 293 292 292 291 289 289 287 286 287 287 287 288 287 287 286 285 285 284 284 283 283 282 282 281 281 281 281 281 281 281 281 281
283 285 293 288 295 298 295 288 287 288 292 292 293 293 291 289 293 293 285 286 285 284 284 284 283 282 281 281 282 282 280 279 278 278 278 278 278 278 279 279 278 278 278 279
286 287 290 293 293 296 293 286 286 295 296 288 290 290 289 291 289 286 284 283 281 280 281 280 278 276 275 275 278 277 275 273 273 274 275 276 276 276 276 276 276 277 277 277
289 290 289 291 291 292 287 285 289 291 287 287 287 287 287 286 285 283 281 280 278 277 276 277 276 273 270 272 273 273 271 270 271 272 273 273 273 273 274 274 275 276 276 276
291 293 292 293 292 288 287 288 286 286 287 286 286 284 283 285 283 282 279 276 274 273 273 273 273 271 269 269 269 269 268 268 269 270 270 270 271 271 272 272 273 273 275 276
286 286 290 289 291 288 286 285 284 283 283 281 280 279 281 281 280 278 277 275 274 272 271 270 271 270 269 267 267 266 265 266 266 267 267 268 269 269 270 271 272 273 274 274
288 286 289 288 287 285 285 286 283 279 278 277 275 276 277 277 275 275 274 272 271 270 269 268 268 268 267 265 265 264 263 263 264 264 265 266 267 267 268 269 270 271 271 272
285 289 289 291 289 288 283 279 278 278 276 276 274 273 271 272 272 272 270 269 268 268 266 266 265 264 264 263 263 262 262 262 262 262 264 264 264 265 266 267 268 269 270 271

GFSCGP_925_thetae_342.txt.gz
Theta_e
301 302 303 300 299 300 301 302 302 300 295 295 297 298 298 299 298 297 298 298 296 295 295 293 291 290 289 288 287 287 287 287 288 289 289 288 287 286 285 285 285 285 285 285
299 301 295 296 297 300 301 301 301 297 295 295 296 295 296 297 298 297 297 297 297 295 293 292 291 290 289 288 287 287 287 287 288 288 288 287 286 286 286 285 284 284 284 284
299 293 293 295 297 298 297 298 297 296 296 296 295 296 301 299 299 299 297 297 298 296 293 290 291 290 289 288 288 287 287 287 287 287 286 287 287 286 286 285 285 284 284 284
293 291 293 295 294 294 298 293 294 295 296 297 296 294 300 298 297 297 298 295 296 296 295 292 291 290 289 289 288 287 287 286 286 286 287 288 288 286 285 285 285 284 284 283
292 292 293 295 292 291 294 293 295 295 296 296 296 294 299 300 297 297 297 297 296 295 294 292 291 291 290 289 288 287 287 286 286 287 287 287 287 286 285 285 285 285 284 284
289 289 290 291 291 292 292 295 295 296 295 298 296 295 297 299 300 300 298 297 297 297 295 295 293 292 291 290 288 288 287 287 286 286 286 287 287 286 286 286 285 285 284 284
291 290 289 290 292 293 294 296 304 302 301 305 295 294 295 300 297 297 295 294 294 293 295 293 292 291 291 290 289 288 287 287 286 286 286 286 286 286 286 286 285 285 285 284
296 295 290 289 291 295 294 296 304 300 304 299 295 295 298 298 297 296 295 296 295 295 294 293 294 292 291 290 289 288 287 287 286 286 286 286 286 286 285 285 285 284 284 284
298 292 288 288 289 290 294 294 295 293 290 294 296 298 298 296 297 296 295 295 295 294 294 294 294 293 291 290 289 289 288 287 287 286 286 286 286 286 286 285 285 284 284 283
296 291 289 287 288 290 292 291 294 295 296 297 300 298 296 295 295 295 295 294 294 294 294 293 294 293 292 291 290 289 288 288 287 287 286 286 286 286 286 285 285 285 284 284
294 297 290 288 288 291 289 292 292 295 297 300 298 298 299 296 295 294 293 294 293 294 292 291 293 294 293 292 290 290 289 288 288 287 286 286 286 286 286 285 285 285 284 284
294 295 292 292 287 287 289 293 294 296 295 293 296 294 297 296 295 293 292 293 293 293 292 291 293 294 293 292 290 290 289 289 288 288 287 287 286 286 286 286 285 285 285 284
290 296 292 295 290 287 286 290 293 292 293 293 294 295 294 293 293 293 292 291 291 292 292 291 292 292 293 292 291 290 289 289 289 288 288 287 287 286 286 286 285 285 285 284
293 293 297 300 300 290 287 288 291 288 289 294 296 295 293 292 293 293 291 291 291 290 290 290 290 291 292 292 291 290 290 289 288 288 288 287 287 286 286 286 285 285 285 285
290 289 286 289 291 291 289 285 289 289 291 291 294 294 294 294 294 294 293 291 291 290 290 288 289 290 291 291 291 290 289 289 288 288 287 287 287 286 286 285 285 285 284 284
283 289 282 286 290 290 287 288 287 290 291 291 292 293 294 290 289 291 290 289 289 288 288 287 289 290 289 290 290 289 289 288 287 287 287 286 286 286 285 285 284 284 284 284
284 284 286 289 288 289 288 287 289 289 286 290 290 292 291 290 290 289 288 287 288 288 287 287 287 289 289 289 289 288 288 287 287 286 286 286 285 285 284 284 284 284 283 283
286 286 288 288 284 287 291 289 286 289 290 290 289 290 288 288 287 286 285 286 287 286 285 286 287 287 287 288 287 288 287 287 285 285 284 284 284 284 283 283 283 282 282 282
284 288 287 286 285 291 291 286 285 286 288 288 290 290 288 285 284 285 285 285 284 283 284 283 282 281 282 283 284 284 283 283 282 280 281 281 281 281 281 281 281 280 280 280
284 283 287 283 288 291 290 287 286 285 287 285 289 289 288 286 287 283 281 283 282 281 280 279 278 277 278 278 280 280 277 277 275 275 275 276 277 277 278 278 278 278 278 278
281 282 285 286 286 289 288 285 285 286 289 285 287 287 286 286 283 281 281 279 278 277 279 276 274 272 272 274 276 274 273 271 271 272 273 274 274 275 275 276 276 276 276 276
285 286 283 284 286 288 285 284 288 287 283 285 284 284 284 283 282 280 278 277 276 275 275 275 272 270 270 271 272 271 269 269 270 271 272 272 272 272 273 273 273 274 274 274
288 288 288 289 289 284 285 287 284 283 283 284 282 282 283 282 281 279 276 274 273 272 272 272 271 269 268 268 269 268 267 268 268 269 269 269 270 270 270 270 271 271 272 273
283 283 287 288 284 285 285 284 282 282 281 280 279 279 281 280 279 277 276 275 273 271 270 270 270 268 266 265 265 265 265 265 266 266 266 267 267 267 267 268 269 270 271 271
285 284 283 286 286 285 286 285 281 279 278 277 276 277 277 277 277 275 273 272 271 269 268 267 267 266 265 264 263 263 263 263 263 264 264 264 264 265 265 266 267 268 269 270
283 285 287 290 288 287 285 282 280 278 277 275 274 273 273 273 273 272 270 268 268 266 265 264 264 263 262 262 261 261 261 261 261 261 262 262 262 263 264 264 265 265 267 268

GFSCGP_925_thetae_345.txt.gz
Theta_e
299 297 299 298 298 299 300 300 300 296 295 295 295 294 294 294 295 294 294 293 292 291 292 291 291 290 289 288 288 287 287 287 288 288 288 287 286 286 285 285 285 285 285 285
296 298 293 295 297 299 299 299 298 295 295 294 293 292 292 293 295 294 294 294 293 292 289 290 290 289 289 288 287 287 287 287 288 288 287 287 286 286 285 285 284 284 284 284
295 292 292 295 295 296 293 296 295 296 294 294 293 293 299 297 296 294 294 294 294 292 289 288 289 289 289 288 287 287 287 287 287 287 287 286 286 286 285 285 284 284 284 284
290 291 293 294 292 293 296 292 293 295 293 295 293 292 294 297 296 295 295 293 293 292 289 289 288 289 289 288 287 287 286 286 286 286 287 287 287 286 285 285 285 284 284 284
291 291 292 294 292 291 294 292 294 294 294 293 294 292 293 294 296 296 296 294 291 291 289 288 288 289 289 289 288 287 287 286 286 287 287 287 287 285 285 285 285 284 284 283
288 289 289 290 290 292 291 293 294 293 293 292 295 292 292 294 296 296 294 293 292 291 290 289 289 290 290 289 288 287 287 286 286 287 287 287 286 286 285 285 285 285 284 284
290 289 288 289 291 291 293 296 298 296 294 294 294 292 292 297 295 295 295 294 293 293 290 287 288 289 289 289 288 287 287 286 286 286 287 287 286 286 286 285 285 285 284 284
292 291 288 288 290 291 292 294 296 292 303 298 292 293 295 296 294 294 293 293 294 293 291 288 289 289 289 289 288 288 287 287 286 286 286 286 286 286 286 285 285 285 284 284
292 292 287 287 288 289 292 291 294 289 288 289 292 294 295 296 295 293 293 293 293 293 291 290 290 290 290 289 289 288 288 287 286 286 286 286 286 286 286 285 285 285 284 284
295 289 288 287 288 289 291 291 291 291 289 290 298 293 293 294 294 293 293 292 292 293 293 290 291 290 290 290 289 289 288 288 287 286 286 286 286 286 286 286 285 285 285 284
288 290 288 287 286 289 288 290 291 292 295 296 294 295 292 293 292 292 291 291 291 291 290 289 291 291 290 290 289 289 288 288 287 287 286 286 286 286 286 286 285 285 285 285
291 289 286 288 286 286 287 291 292 293 292 291 293 292 294 293 291 290 290 290 290 290 289 289 291 291 291 290 290 289 289 288 288 287 287 286 286 286 286 286 285 285 285 285
290 288 286 292 289 286 284 289 293 291 291 289 290 291 293 292 291 290 289 289 289 289 288 288 290 291 291 290 290 290 289 289 288 288 287 286 286 286 286 286 286 285 285 285
293 286 290 295 294 286 285 287 291 288 287 292 294 294 291 290 290 289 289 288 288 288 288 288 288 289 290 290 290 290 289 289 289 288 288 287 287 286 286 286 286 285 285 285
288 289 285 286 291 288 286 285 289 290 290 292 294 295 293 290 289 289 288 288 289 289 287 287 287 288 289 290 290 289 290 289 289 288 288 288 287 287 287 286 286 285 285 284
281 284 281 284 289 290 288 287 286 291 292 291 292 292 290 286 289 288 287 287 287 287 287 286 287 289 288 288 289 289 289 289 289 288 288 288 287 287 286 286 285 284 284 284
285 282 285 286 288 288 289 286 288 288 284 290 290 291 290 288 288 287 286 286 287 286 286 286 285 286 287 288 288 288 288 288 288 287 286 286 286 286 285 285 284 284 283 283
282 283 283 284 283 289 292 287 287 290 289 288 287 288 287 287 285 284 285 285 285 285 284 282 280 281 283 285 286 286 286 285 284 284 283 283 283 283 283 283 283 282 282 281
283 285 285 288 281 289 289 287 286 287 289 289 289 290 285 283 281 282 283 283 282 281 279 278 278 278 280 281 282 283 282 281 280 278 278 279 279 279 280 280 279 279 279 279
284 283 287 284 289 289 287 286 284 284 292 284 289 289 287 284 288 283 279 280 279 278 277 275 275 276 277 277 278 279 275 275 273 273 274 275 276 276 276 276 276 276 276 277
281 280 288 284 285 285 286 285 283 290 293 283 286 286 286 288 282 280 278 277 276 276 274 273 272 271 272 273 274 272 271 269 270 271 272 273 273 274 273 274 274 274 275 275
284 285 283 281 284 289 284 285 288 287 281 283 282 282 283 281 280 278 276 275 274 274 273 271 270 268 269 271 271 269 268 267 268 269 270 271 271 271 271 271 271 271 272 272
289 286 285 289 289 282 284 286 282 280 281 283 282 282 282 280 278 276 274 272 271 272 272 270 268 266 266 267 268 266 264 266 267 267 268 268 268 268 268 268 269 269 269 270
282 279 285 287 282 283 284 283 281 281 280 280 280 280 280 278 277 275 273 272 271 270 269 269 267 265 264 264 264 264 264 264 265 266 265 266 266 266 267 267 267 267 268 268
284 284 283 285 285 286 285 284 281 278 277 277 276 277 277 277 276 275 273 272 270 268 267 266 266 264 263 262 262 262 263 263 264 264 264 264 264 264 264 264 264 265 266 267
282 283 288 289 288 287 285 282 279 278 277 275 275 274 274 274 273 271 270 269 267 266 265 264 263 262 261 261 261 261 261 261 262 262 262 262 262 262 262 262 262 263 264 266